Regional Weather Roundup
Issued by NWS

Home | Current Version | Previous Version | Text Only | Print | Product List | Glossary Off
Versions: 1 2 3 4 5 6 7 8 9 10 11 12 13 14 15 16 17 18 19 20 21 22 23 24 25 26 27 28 29 30 31 32 33 34 35 36 37 38 39 40 41 42 43 44 45 46 47 48 49 50

000
ASUS43 KIND 240509
RWRIN

WEATHER ROUNDUP FOR INDIANA
NATIONAL WEATHER SERVICE INDIANAPOLIS IN
1200 AM EST FRI NOV 24 2017

NOTE: "FAIR" INDICATES FEW OR NO CLOUDS BELOW 12,000 FEET WITH NO
SIGNIFICANT WEATHER AND/OR OBSTRUCTIONS TO VISIBILITY.

* - STATION DOES NOT REPORT WEATHER SUCH AS PRECIPITATION OR FOG.

+ - STATION NOT QUALITY CONTROLLED BY THE NATIONAL WEATHER SERVICE.
    USE DATA WITH CAUTION...ESPECIALLY DEWPOINT AND RELATIVE
    HUMIDITY OBSERVATIONS.

INZ001>003-010>013-019-020-240600-
NORTHWEST INDIANA

CITY           SKY/WX    TMP DP  RH WIND       PRES   REMARKS
GARY /AIRPORT/ CLEAR     37  28  72 S5        29.92F WCI  33
KNOX *+        CLEAR     32  27  80 CALM      29.94F
LA PORTE +     PTCLDY    32  26  77 S5        29.94F WCI  27
MICHIGAN CITY+ CLEAR     34  27  75 S6        29.93F WCI  29
MONTICELLO +   CLEAR     35  23  62 S3        29.95F
RENSSELAER +   CLEAR     32  23  69 S6        29.95S WCI  26
VALPARAISO     CLEAR     34  26  72 S6        29.93F WCI  29

$$

LMZ046-743>745-240600-
SOUTHERN LAKE MICHIGAN

STATION/POSITION TIME  TEMP    WIND        PRES    WAVE
                       AIR SEA DIR/SP/G            HT
                 (UTC) (F)     (DEG/KT/KT) (MB)    (FT)
BURNS HARBOR     0440   37     180/ 10/ 11 1013.5F
MICHIGAN CITY    0440   37     160/ 12/ 14   N/A

$$

INZ004-005-014>016-021>024-240600-
NORTH CENTRAL INDIANA

CITY           SKY/WX    TMP DP  RH WIND       PRES   REMARKS
GOSHEN         CLOUDY    34  23  64 S7        29.95S WCI  28
LOGANSPORT +   CLEAR     32  27  80 S6        29.97F WCI  26
PERU/GRISSOM   CLEAR     32  24  73 S8        29.96S WCI  25
ROCHESTER +    CLEAR     37  27  65 S7        29.96F WCI  32
SOUTH BEND     CLEAR     33  25  72 SW9       29.94F WCI  25
WARSAW +       CLOUDY    34  25  69 CALM      29.96S

$$

INZ006>009-017-018-025>027-240600-
NORTHEAST INDIANA

CITY           SKY/WX    TMP DP  RH WIND       PRES   REMARKS
AUBURN +       CLEAR     32  23  69 CALM      29.97F
FORT WAYNE     PTCLDY    32  25  75 S5        29.98S WCI  27
HUNTINGTON +   CLEAR     31  23  71 CALM      29.97S
KENDALLVILLE + CLEAR     33  24  68 SW8       29.95F WCI  27

$$

INZ028-029-035-036-043>045-051>053-240600-
WEST CENTRAL INDIANA

CITY           SKY/WX    TMP DP  RH WIND       PRES   REMARKS
CRAWFORDSVL +  CLEAR     31  24  76 MISG      29.94
GREENCASTLE +  CLOUDY    32  21  64 CALM      29.99F
LAFAYETTE      CLEAR     34  24  67 CALM      29.97S
TERRE HAUTE    CLEAR     31  22  69 SE3       29.99F

$$

INZ030>032-037>040-046>048-054>057-064-065-240600-
CENTRAL INDIANA

CITY           SKY/WX    TMP DP  RH WIND       PRES   REMARKS
CP ATTERBURY + CLOUDY    27  25  93 CALM      30.02S
FRANKFORT +    CLEAR     35  27  74 S7        29.98S WCI  29
GREENWOOD *+   CLOUDY    36  24  62 S5        30.00S WCI  32
INDIANAPOLIS   CLEAR     35  21  56 S5        30.00S WCI  31
-EAGLE CREEK   CLEAR     32  22  66 CALM      29.99S
KOKOMO +       CLEAR     31  25  78 S6        29.98S WCI  25
MARION +       CLEAR     30  26  84 CALM      29.99S
MT COMFORT *+  CLOUDY    28  27  93 S6        29.99F WCI  22
SHELBYVILLE    CLOUDY    33  23  66 S5        30.00R WCI  29
ZIONSVILLE +   CLEAR     33  23  67 SW5       29.99S WCI  28

$$

INZ033-034-041-042-049-050-058-059-240600-
EAST CENTRAL INDIANA

CITY           SKY/WX    TMP DP  RH WIND       PRES   REMARKS
MUNCIE         CLEAR     35  24  64 S6        29.99S WCI  30
RICHMOND +     CLOUDY    28  25  86 SW6       30.00R WCI  22

$$

INZ060-061-067>069-081>083-085>088-240600-
SOUTHWEST INDIANA

CITY           SKY/WX    TMP DP  RH WIND       PRES   REMARKS
EVANSVILLE     CLEAR     32  27  81 CALM      30.03S
HUNTINGBURG +  CLEAR     35  25  66 CALM      30.03R
WASHINGTON +   CLOUDY    32  25  74 SE6       30.01S WCI  26

$$

INZ062-063-066-070>080-084-089>092-240600-
SOUTH CENTRAL AND SOUTHEAST INDIANA

CITY           SKY/WX    TMP DP  RH WIND       PRES   REMARKS
BEDFORD +      CLOUDY    32  23  69 CALM      30.01S
BLOOMINGTON    CLEAR     28  22  78 CALM      30.00S
MADISON *+     CLEAR     30  27  86 CALM      30.03F
NORTH VERNON + CLOUDY    28  25  86 CALM      30.02F
SEYMOUR +      CLOUDY    28  25  86 CALM      30.02F

$$





USA.gov is the U.S. government's official web portal to all federal, state and local government web resources and services.